Columbia, MO

2:11 AM CDT on March 23, 2017 (GMT -0500)
Columbia Regional

Weather History for KCOU - May, 2012

Change the Weather History Date:

Sunday, May 6, 2012

  Actual Average Record
Temperature  
Mean Temperature 77 °F 61 °F  
Max Temperature 89 °F 72 °F 90 °F (1896)
Min Temperature 65 °F 51 °F 32 °F (1891)
Degree Days  
Heating Degree Days 0 5  
Month to date heating degree days 0 33  
Since 1 July heating degree days 3754 4936  
Cooling Degree Days 12 1  
Month to date cooling degree days 63 6  
Year to date cooling degree days 150 31  
Growing Degree Days 26 (Base 50)    
Moisture  
Dew Point 67 °F    
Average Humidity 71    
Maximum Humidity 90    
Minimum Humidity 51    
Precipitation  
Precipitation 0.30 in 0.17 in 2.09 in (1910)
Month to date precipitation 1.14 1.02  
Year to date precipitation 16.92 12.59  
Snow  
Snow 0.00 in 0.00 in T in (1944)
Month to date snowfall 0.0 0.0  
Since 1 July snowfall 6.6 18.0  
Snow Depth 0.00 in    
Sea Level Pressure  
Sea Level Pressure 29.85 in    
Wind  
Wind Speed 7 mph (SE)    
Max Wind Speed 25 mph    
Max Gust Speed 33 mph    
Visibility 9 miles    
Events Rain , Thunderstorm    
T = Trace of Precipitation, MM = Missing Value Source: NWS Daily Summary

Daily Weather History Graph

Daily Weather History Graph

Search for Another Location

Airport or City:

Trip Planner

Search our weather history database for the weather conditions in past years. The results will help you decide how hot, cold, wet, or windy it might be!

Date:

Astronomy

May. 06, 2012 Rise Set
Actual Time 6:04 AM CDT 8:06 PM CDT
Civil Twilight 5:35 AM CDT 8:35 PM CDT
Nautical Twilight 5:00 AM CDT 9:11 PM CDT
Astronomical Twilight 4:21 AM CDT 9:50 PM CDT
Moon 9:11 PM CDT (5/6) 6:16 AM CDT (5/6)
Length of Visible Light 15h 00m
Length of Day
14h 01m
Full, 100% of the Moon is Illuminated
May 6
Full
May 12
Last Quarter
May 20
New
May 28
First Quarter
Jun 4
Full

Hourly Weather History & Observations

Time (CDT) Temp. Heat Index Dew Point Humidity Pressure Visibility Wind Dir Wind Speed Gust Speed Precip Events Conditions
12:54 AM 73.0 °F - 69.1 °F 87% 29.85 in 10.0 mi SSE 5.8 mph - N/A   Clear
1:54 AM 72.0 °F - 68.0 °F 87% 29.84 in 10.0 mi SSE 6.9 mph - N/A   Clear
2:54 AM 71.1 °F - 68.0 °F 90% 29.84 in 10.0 mi SSE 6.9 mph - N/A   Clear
3:54 AM 71.1 °F - 66.9 °F 87% 29.83 in 10.0 mi South 5.8 mph - N/A   Clear
4:54 AM 69.1 °F - 66.0 °F 90% 29.85 in 10.0 mi South 4.6 mph - N/A   Clear
5:54 AM 70.0 °F - 66.9 °F 90% 29.86 in 8.0 mi South 3.5 mph - N/A   Clear
6:54 AM 69.8 °F - 66.2 °F 88% 29.88 in 7.0 mi SE 8.1 mph - N/A   Clear
7:54 AM 73.0 °F - 68.0 °F 84% 29.86 in 10.0 mi SSE 5.8 mph - N/A   Clear
8:54 AM 75.9 °F - 69.1 °F 79% 29.88 in 10.0 mi South 4.6 mph - N/A   Clear
9:54 AM 79.0 °F - 71.1 °F 77% 29.86 in 10.0 mi South 5.8 mph - N/A   Clear
10:54 AM 82.0 °F 86.3 °F 71.1 °F 69% 29.85 in 10.0 mi SSE 8.1 mph - N/A   Clear
11:54 AM 84.9 °F 91.4 °F 73.0 °F 67% 29.86 in 10.0 mi South 8.1 mph - N/A   Partly Cloudy
12:54 PM 84.9 °F 89.4 °F 70.0 °F 61% 29.86 in 10.0 mi West 4.6 mph - N/A   Partly Cloudy
1:54 PM 84.9 °F 89.4 °F 70.0 °F 61% 29.85 in 10.0 mi Calm Calm - N/A   Partly Cloudy
2:54 PM 88.0 °F 92.9 °F 70.0 °F 55% 29.86 in 10.0 mi WSW 4.6 mph - 0.01 in   Partly Cloudy
3:54 PM 81.0 °F 82.2 °F 63.0 °F 54% 29.85 in 10.0 mi NNE 17.3 mph 25.3 mph N/A   Partly Cloudy
4:54 PM 80.1 °F 81.1 °F 61.0 °F 52% 29.81 in 10.0 mi East 8.1 mph - N/A   Clear
5:54 PM 80.1 °F 81.9 °F 64.9 °F 60% 29.79 in 10.0 mi East 6.9 mph - N/A   Clear
6:54 PM 78.1 °F - 66.9 °F 68% 29.81 in 10.0 mi Calm Calm - N/A   Clear
7:54 PM 77.0 °F - 71.1 °F 82% 29.80 in 10.0 mi ENE 3.5 mph - N/A   Clear
8:54 PM 75.9 °F - 66.9 °F 74% 29.80 in 10.0 mi ENE 5.8 mph - N/A   Clear
9:54 PM 73.0 °F - 60.1 °F 64% 29.87 in 10.0 mi NNW 19.6 mph 26.5 mph N/A Thunderstorm Scattered Clouds
10:08 PM 71.6 °F - 59.0 °F 64% 29.89 in 10.0 mi NNW 21.9 mph 27.6 mph N/A   Scattered Clouds
10:54 PM 68.0 °F - 60.1 °F 76% 29.90 in 10.0 mi WNW 13.8 mph 21.9 mph N/A Thunderstorm Thunderstorm
11:25 PM 64.4 °F - 62.6 °F 94% 29.91 in 1.8 mi NNW 18.4 mph 29.9 mph 0.10 in Rain , Thunderstorm Heavy Thunderstorms and Rain
11:34 PM 66.2 °F - 60.8 °F 83% 29.89 in 3.0 mi North 18.4 mph - 0.26 in Rain , Thunderstorm Heavy Thunderstorms and Rain
11:54 PM 66.9 °F - 62.1 °F 84% 29.85 in 10.0 mi NNE 9.2 mph - 0.30 in Rain , Thunderstorm Light Thunderstorms and Rain